www.pogodaiklimat.ru

Погода и климат >> Архив погоды >> Россия >> Ненецкий АО >> Канин Нос


ПОГОДА в Канином Носе

  • Прогноз погоды в Канином Носе
  • Монитор погоды в Канином Носе

АРХИВ ПОГОДЫ в Канином Носе

Время (UTC), дата Ветер
(напр.,м/с)
 
Видим.   Явления Облачность Т
(С)
Тd
(С)
f
(%)
Тe
(С)
Тes
(С)
Комфортность P
(гПа)
Po
(гПа)
Тmin
(С)
Tmax
(С)
R
(мм)
R24
(мм)
S
(см)
00 18.03 Ю 8-10
{13}
20 км позёмок 10/10 300 м
[Sc]
-2.8 -3.7 94 -11 -11 1008.3 1002.1
03 18.03 Ю 6
{12}
20 км {метель} 10/10 300 м
[Sc]
-2.7 -3.0 98 -10 -10 1009.2 1003.0 -3.6 123
06 18.03 Ю 7 20 км {метель} 10/10 300 м
[Sc]
-2.1 -2.2 99 -10 -10 1009.8 1003.6
09 18.03 Ю 5 4000 м слаб. ливневой снег 10/10 300 м
[Cb cap]
-2.0 -2.0 100 -9 -9 1011.2 1005.0
12 18.03 Ю 4 20 км {ливн. осадки} 10/10 300 м
[Cb cap]
-2.0 -2.0 100 -8 -8 1011.3 1005.1
15 18.03 ЮВ 6 20 км 10/10 300 м
[St]
-1.9 -2.1 99 -9 -9 1010.2 1004.0 -1.8 0.1
18 18.03 ЮВ 7 4000 м слаб. снег 10/0
[As op]
-1.5 -1.5 100 -9 -9 1009.3 1003.1
21 18.03 ЮВ 8 4000 м слаб. снег 10/0
[As op]
-1.4 -1.4 100 -10 -10 1007.6 1001.4
00 19.03 ЮВ 8-10
{11}
4000 м слаб. снег 10/0 300 м
[As op]
-1.4 -1.4 100 -10 -10 1005.2 999.1
03 19.03 ЮВ 7
{10}
4000 м слаб. снег 10/0 300 м
[As op]
-1.4 -1.4 100 -9 -9 1003.2 997.1 -1.9 0.8 123
06 19.03 Ю 5 4000 м слаб. снег 10/0
[As op]
-1.3 -1.3 100 -8 -8 1001.8 995.7
09 19.03 Ю 4 500 м туман {снег} ясно -1.1 -1.1 100 -7 -5 1001.3 995.2
12 19.03 Ю 5 4000 м в посл. час туман 10/10 300 м
[St]
-1.2 -1.2 100 -8 -8 1001.5 995.4
15 19.03 ЮЗ 6 4000 м в посл. час снег 10/10 300 м
[St]
-0.8 -0.8 100 -8 -8 1002.2 996.1 -0.7 1
18 19.03 ЮЗ 5 20 км {снег, туман} 10/10 300 м
[St]
-1.0 -1.0 100 -8 -8 1002.5 996.4
21 19.03 Ю 5 4000 м слаб. снег 10/0
[As op]
-1.1 -1.1 100 -8 -8 1002.0 995.9
00 20.03 ЮЗ 3 4000 м слаб. снег 10/0 300 м
[As op]
-1.4 -1.4 100 -7 -7 1001.4 995.3
03 20.03 З 4 20 км {снег} 10/10 300 м
[Sc]
-1.4 -1.4 100 -7 -7 1001.2 995.1 -1.7 0.5 127
06 20.03 СЗ 4 4000 м ливневой снег 10/10 300 м
[Cb cap]
-1.5 -1.5 100 -8 -8 1001.3 995.2
09 20.03 З 4 4000 м слаб. ливневой снег 10/10 300 м
[Cb cap]
-1.5 -1.5 100 -8 -8 1002.3 996.2
12 20.03 З 3 4000 м слаб. ливневой снег 10/10 300 м
[Cb cap]
-1.8 -1.8 100 -7 -7 1003.0 996.9
15 20.03 З 3 4000 м слаб. ливневой снег 10/10 300 м
[Cb cap]
-2.2 -2.2 100 -8 -8 1003.8 997.6 -1.4 2
18 20.03 З 4 20 км в посл. час ливневой снег 10/10 300 м
[Cb cap]
-2.3 -2.3 100 -9 -9 1003.8 997.7
21 20.03 З 5 1000 м ливневой снег 10/10 300 м
[Cb cap]
-2.0 -2.0 100 -9 -9 1003.8 997.7
00 21.03 З 5 4000 м слаб. ливневой снег 10/10 300 м
[Cb cap]
-2.3 -2.3 100 -9 -9 1004.3 998.1
03 21.03 ЮЗ 2 20 км {ливн. осадки} 10/10 300 м
[Cb cap]
-3.3 -3.3 100 -8 -8 1004.5 998.3 -3.3 0.9 130
06 21.03 ЮЗ 3 20 км {ливн. осадки} 9/8 600 м
[Sc Ac As]
-3.2 -3.2 100 -9 -9 1004.5 998.3
09 21.03 Ю 3 20 км 3/1 600 м
[Sc Ac trans Cc]
-3.9 -4.1 99 -9 -7 1004.9 998.7
12 21.03 ЮВ 5 20 км в посл. час ливневой снег 8/6 300 м
[Cb cap Ac lent]
-4.4 -4.5 99 -12 -11 1004.5 998.3
15 21.03 ЮВ 7 20 км 8/6 600 м
[Cu Sc Ac trans Ci ing]
-4.6 -4.8 99 -13 -13 1003.8 997.5 -2.8 0.2
18 21.03 ЮВ 6 20 км 9/9 600 м
[Cu Sc]
-4.4 -4.8 97 -12 -12 1002.8 996.6
21 21.03 ЮВ 7 20 км 9/9 600 м
[Cu Sc]
-4.6 -4.7 99 -13 -13 1001.7 995.5
00 22.03 ЮВ 8
{10}
20 км 10/10 300 м
[Sc]
-4.2 -4.3 99 -13 -13 1001.2 995.0
03 22.03 ЮВ 6 20 км 10/10 300 м
[Sc]
-4.1 -4.1 100 -12 -12 1002.1 995.9 -4.8 130
06 22.03 Ю 3 1000 м слаб. снег 10/0
[As op]
-3.3 -3.3 100 -9 -9 1003.9 997.7
09 22.03 ЮЗ 3 20 км {снег} 10/10 300 м
[Sc]
-1.8 -2.0 99 -7 -7 1006.0 999.8
12 22.03 ЮЗ 3 20 км {снег} 9/8 600 м
[Sc Ac lent Ci fib]
-0.8 -0.8 100 -6 -6 1008.1 1001.9
15 22.03 ЮЗ 2 20 км 9/8 600 м
[Sc Ac trans]
-1.5 -1.5 100 -6 -6 1010.3 1004.1 -0.6 0.0
18 22.03 З 4 20 км {ливн. осадки} 4/3 300 м
[Cb cap Ac trans]
-3.1 -3.1 100 -9 -9 1011.9 1005.7
21 22.03 Ю 3 20 км 5/3 600 м
[Sc Ac As]
-3.8 -3.8 100 -9 -9 1012.2 1006.0
00 23.03 Ю 6 20 км 6/6 600 м
[Sc]
-4.2 -4.4 99 -12 -12 1011.8 1005.5
03 23.03 Ю 10-12
{12}
20 км 9/8 600 м
[Sc Ac lent Ci fib]
-3.1 -4.1 93 -12 -12 1009.6 1003.4 -4.9 0.0 131
06 23.03 Ю 12-15
{16}
20 км позёмок 9/8 600 м
[Sc Ac As]
-2.3 -3.6 91 -12 -12 1007.0 1000.8
09 23.03 Ю 16-21
{21}
20 км сильный позёмок 10/10 600 м
[Sc]
-1.9 -2.8 94 -13 -13 1002.3 996.1
12 23.03 Ю 20-26
{26}
50 м сильная метель ?/? -2.3 -2.3 100 -14 -14 997.2 991.0
15 23.03 Ю 19-24
{27}
50 м сильная метель ?/? -2.1 -2.1 100 -14 -14 991.6 985.5 -1.7 3
18 23.03 Ю 16-20
{25}
50 м сильная метель ?/? -1.7 -1.7 100 -12 -12 987.4 981.3
21 23.03 Ю 13-16
{23}
50 м сильная метель ?/? -1.2 -1.4 99 -11 -11 985.6 979.6
00 24.03 Ю 11-14
{17}
200 м сильная метель ?/? -1.2 -1.2 100 -10 -10 984.1 978.1
03 24.03 Ю 10-12
{15}
20 км позёмок 10/10 300 м
[Sc]
-0.9 -0.9 100 -10 -10 984.3 978.3 -2.0 4 146
06 24.03 Ю 10-12
{14}
20 км {метель} 8/3 600 м
[Sc Ac trans Ci fib]
-1.0 -1.2 99 -10 -10 985.3 979.3
09 24.03 Ю 9-11
{12}
20 км 8/8 600 м
[Sc]
-0.9 -1.3 97 -9 -9 986.8 980.8
12 24.03 Ю 10-13
{14}
20 км 6/3 600 м
[Sc Ac trans Ci fib]
-1.3 -1.8 96 -10 -10 988.2 982.1
15 24.03 Ю 11-14
{16}
20 км позёмок 6/3 600 м
[Sc Ac lent Ci fib]
-1.5 -2.1 96 -11 -11 988.5 982.5 -0.6
18 24.03 Ю 10-13
{18}
20 км {метель} 8/8 600 м
[Sc]
-0.9 -1.3 97 -10 -10 988.8 982.8
21 24.03 Ю 9-11
{15}
4000 м слаб. ливневой снег 10/10 300 м
[Cb cap]
-1.1 -1.1 100 -10 -10 988.8 982.8

 

Местоположение метеостанции Канин Нос (Ненецкий АО, Россия): широта 68.65 долгота 43.30 высота над уровнем моря 49 м.

В архиве по умолчанию представлена погода в Канином Носе за последнюю неделю. Архивные данные за месяц целиком и за предыдущие месяцы, начиная с января 2011 года, Вы можете получить, выбрав интересующий диапазон дат из раскрывающегося списка и нажав кнопку "Ввод!".


*Определитесь, кто Вы:
робот инопланетянин человек

Внимание! Время в таблицах - всемирное. Для получения местного времени необходимо прибавить поправку, которая равна 3 ч.

Смотрите также архив погоды в соседних городах и на ближайших метеорологических станциях:

Погода в Шойне (Ненецкий АО, Россия) (93 км)
Погода в Святом Носе (Мурманская область, Россия) (155 км)
Погода на Мысе Микулкин (Ненецкий АО, Россия) (168 км)
Погода в Иоканьге (Мурманская область, Россия) (170 км)
Погода на Моржовец Острове (Архангельская область, Россия) (217 км)
Погода в Каневке (Мурманская область, Россия) (227 км)
Погода в Неси (Ненецкий АО, Россия) (235 км)
Погода в Бугрино (Ненецкий АО, Россия) (244 км)
Погода в Индиге (Ненецкий АО, Россия) (247 км)
Погода на Колгуевом Острове (Ненецкий АО, Россия) (249 км)

Пояснения к столбцам:

Ветер - указаны скорость ветра в м/с - средняя за 10 мин, порывы в срок и между сроками (в фигурных скобках) и направление, откуда дует ветер: С - северный, СВ - северо-восточный, В - восточный, ЮВ - юго-восточный, Ю - южный, ЮЗ - юго-западный, З - западный, СЗ - северо-западный.
Видимость - горизонтальная дальность видимости в метрах или километрах. При видимости от 1 до 10 км при отсутствии осадков обычно наблюдается дымка, при ухудшении видимости до 1 км и менее - туман. В сухую погоду видимость может ухудшаться дымом, пылью или мглою.
Явления - указаны атмосферные явления, наблюдавшиеся в срок или в последний час перед сроком; фигурными скобками обозначены явления, наблюдавшиеся между сроками (за 1-3 часа до срока); квадратными скобками обозначены град или гололедные отложения с указанием их диаметра в мм.
Облачность - указаны через наклонную черту общая и нижняя облачность в баллах и высота нижней границы облаков в метрах; квадратными скобками обозначены формы облаков: Ci - перистые, Cs - перисто-слоистые, Cc - перисто-кучевые, Ac - высококучевые, As - высокослоистые, Sc - слоисто-кучевые, Ns - слоисто-дождевые, Cu - кучевые, Cb - кучево-дождевые. Подробнее классификацию облаков см. в Атласе облаков (PDF).
T - Температура воздуха - температура, измеренная на высоте 2 м над землей.
Td - Температура точки росы - температура, при понижении до которой содержащийся в воздухе водяной пар достигнет насыщения.
f - Относительная влажность воздуха - влажноcть воздуха, измеренная на высоте 2 м над землей.
Te - Эффективная температура - температура, которую ощущает одетый по сезону человек в тени. Характеристика душности погоды. При расчете учитывается влияние влажности воздуха и скорости ветра на теплоощущения человека.
Tes - Эффективная температура на солнце - температура, которую ощущает человек, с поправкой на солнечный нагрев. Характеристика знойности погоды. Зависит от высоты солнца над горизонтом, облачности и скорости ветра. Ночью, в пасмурную погоду, а также при ветре 12 м/с и более поправка равна нулю.
P - Атмосферное давление - приведенное к уровню моря атмосферное давление.
Po - Атмосферное давление - измеренное на уровне метеостанции атмосферное давление.
Tmin - Минимальная температура - минимум температуры воздуха на высоте 2 м над землей.
Tmax - Максимальная температура - максимум температуры воздуха на высоте 2 м над землей.
R - Количество осадков - Количество выпавших осадков за период времени, мм. При наведении курсора мыши на число - период времени, за который выпало указанное количество осадков.
R24 - Количество осадков - Количество выпавших осадков за 24 часа, мм.
S - Снежный покров - Высота снежного покрова, см. При наведении курсора мыши на число - состояние снежного покрова и степень покрытия местности в баллах.